Regional Weather Roundup
Issued by NWS

Home | Current Version | Previous Version | Text Only | Print | Product List | Glossary On
Versions: 1 2 3 4 5 6 7 8 9 10 11 12 13 14 15 16 17 18 19 20 21 22 23 24 25 26 27 28 29
000
ASUS46 KSEW 091610
RWRWA

WASHINGTON REGIONAL WEATHER ROUNDUP
NATIONAL WEATHER SERVICE SEATTLE WA
800 AM PST FRI DEC 09 2016

NOTE:"FAIR" INDICATES FEW OR NO CLOUDS BELOW 12,000 FEET WITH NO
SIGNIFICANT WEATHER AND/OR OBSTRUCTIONS TO VISIBILITY.

WAZ507-509-555>559-091700-
SEATTLE, TACOMA, EVERETT, AND VICINITY

CITY           SKY/WX    TMP DP  RH WIND       PRES   REMARKS
EVERETT        CLOUDY    33  31  92 E9G18     29.95R
BOEING FIELD   LGT RAIN  34  33  96 SE9       29.99R FOG
RENTON         LGT RAIN  34  31  88 SE5       29.99R FOG
SEATAC AIRPORT LGT RAIN  34  31  88 E10       29.97R WCI  26
JBLM-MCCHORD   LGT RAIN  32  32 100 SE1       29.97S
PUYALLUP       DRIZZLE   34  34 100 CALM      29.96R
BREMERTON      CLOUDY    32  30  93 CALM      29.98F
JBLM-FT LEWIS  DRIZZLE   32  32 100 E3        29.96S
TACOMA NARROWS CLOUDY    34  34 100 CALM      29.97R
$$

WAZ001-503-506-510-514-515-091700-
NORTH INTERIOR

CITY           SKY/WX    TMP DP  RH WIND       PRES   REMARKS
BELLINGHAM     FLURRIES  27  24  89 N12       29.98S WCI  17
FRIDAY HARBOR  CLOUDY    34  31  88 NE8       29.97S
EASTSOUND      MIX PCPN  28  28 100 E8        29.97S
PORT ANGELES   MOCLDY    28  28 100 CALM      29.93S
EDIZ HOOK      FAIR      33  31  92 S3        29.95S
PORT TOWNSEND    N/A     34  34 100 VRB5      29.96
NAS WHIDBEY    FLURRIES  36  29  75 E9        30.01R
ARLINGTON      CLOUDY    34  25  69 N5        30.00R
BURLINGTON     NOT AVBL
$$

WAZ020-022-039-040-504-511-512-091700-
SOUTHWEST INTERIOR

CITY           SKY/WX    TMP DP  RH WIND       PRES   REMARKS
SHELTON        LGT RAIN  34  31  88 CALM      29.93S
OLYMPIA        LGT RAIN  35  34  96 SW9       29.97F FOG
CHEHALIS       CLOUDY    36  34  93 SE12      29.99S FOG
KELSO          MIX PCPN  33  31  92 SE12G17   30.03F WCI  24
VANCOUVER      FRZ RAIN  32  29  88 SE5       30.07R
SCAPPOOSE, OR  MIX PCPN  32  30  92 S7        30.06F FOG
PORTLAND, OR   FRZ RAIN  32  29  88 SE12      30.07S FOG     WCI  23
$$

WAZ021-516-517-091700-
WASHINGTON COAST

CITY           SKY/WX    TMP DP  RH WIND       PRES   REMARKS
FORKS          CLOUDY    36  31  82 CALM      29.88S
HOQUIAM        LGT RAIN  35  35 100 E12       29.93S WCI  27
ASTORIA, OR    HVY RAIN  42  38  85 E7        29.95S FOG
$$

WAZ019-023-024-040-567>569-091700-
CASCADE MOUNTAINS AND COLUMBIA GORGE

CITY           SKY/WX    TMP DP  RH WIND       PRES   REMARKS
STAMPEDE PASS  SNOW      11  10  96 E8        29.93S VSB 1/4
TROUTDALE, OR  FRZ RAIN  31  28  89 E21G26    30.07S FOG     WCI  18
THE DALLES, OR LGT SNOW  24  22  91 CALM      30.26R FOG
$$

WAZ026-027-041>044-520-521-091700-
EAST SLOPES

CITY           SKY/WX    TMP DP  RH WIND       PRES   REMARKS
OMAK           CLOUDY    18  13  80 N5        30.22S
WENATCHEE      FLURRIES  21  19  92 N3        30.20S
ELLENSBURG     CLOUDY    20  16  84 NW3       30.15R
YAKIMA         CLOUDY    24  19  81 W7        30.20S
$$

WAZ028-034-035-091700-
COLUMBIA BASIN

CITY           SKY/WX    TMP DP  RH WIND       PRES   REMARKS
EPHRATA        CLOUDY    22  13  68 NE7       30.19S
MOSES LAKE     CLOUDY    23  15  71 N7        30.20S
PASCO          CLOUDY    24  21  88 NW5       30.24S
HERMISTON, OR  CLOUDY    24  22  91 SE3       30.21R FOG
$$

WAZ036>038-091700-
NORTHEAST WASHINGTON

CITY           SKY/WX    TMP DP  RH WIND       PRES   REMARKS
SPOKANE GEIGER CLOUDY    17  13  84 NE8       30.12S
SPOKANE FELTS  FLURRIES  20  14  77 E3        30.17S
FAIRCHILD AFB  CLOUDY    16  13  88 NE12      30.11S WCI   3
COEURDALENE,ID FLURRIES  16   9  74 N15       30.16S WCI   1
DEER PARK      CLOUDY    18   7  62 NE10G21   30.16S WCI   6
$$

WAZ029>033-091700-
SOUTHEAST WASHINGTON

CITY           SKY/WX    TMP DP  RH WIND       PRES   REMARKS
PULLMAN        CLOUDY    24  20  84 E13       30.09F WCI  12
LEWISTON, ID   CLOUDY    25  21  85 CALM      30.15F
WALLA WALLA    FOG       22  21  96 CALM      30.17F VSB 1/4
PENDLETON, OR  LGT SNOW  20  18  92 CALM      30.15S FOG
$$




USA.gov is the U.S. government's official web portal to all federal, state and local government web resources and services.